FW3937 Weather Reports


Display with metric or nautical units.
time (UTC)temp
F
wind
direction
speed
MPH
gust
MPH
rain 1hr
in
rain 24hr
in
rain mn
in
humidity
%
barometer
mb
20260502123023 45 59 4.0 5.0 0.00 0.00 0.00 46 1021.7
20260502122057 45 46 3.0 4.0 0.00 0.00 0.00 46 1021.9
20260502121032 45 38 3.0 4.0 0.00 0.00 0.00 45 1021.8
20260502115019 45 50 3.0 4.0 0.00 0.00 0.00 44 1021.7
20260502114033 46 53 2.0 3.0 0.00 0.00 0.00 43 1021.7
20260502113027 46 39 2.0 3.0 0.00 0.00 0.00 42 1021.7
20260502112022 47 40 2.0 3.0 0.00 0.00 0.00 41 1021.6
20260502111015 47 45 4.0 5.0 0.00 0.00 0.00 41 1021.5
20260502110029 46 45 4.0 5.0 0.00 0.00 0.00 44 1021.7
20260502105023 46 47 4.0 4.0 0.00 0.00 0.00 42 1021.7
20260502104016 47 53 3.0 4.0 0.00 0.00 0.00 40 1021.7
20260502103029 47 47 3.0 4.0 0.00 0.00 0.00 40 1021.7
20260502102023 47 63 3.0 4.0 0.00 0.00 0.00 39 1021.6
20260502101016 46 50 2.0 3.0 0.00 0.00 0.00 43 1021.4
20260502091058 47 65 3.0 5.0 0.00 0.00 0.00 45 1021.5
20260502071022 49 82 2.0 3.0 0.00 0.00 0.00 45 1021.5
20260502070112 49 48 3.0 4.0 0.00 0.00 0.00 42 1021.5
20260502065103 49 41 4.0 5.0 0.00 0.00 0.00 42 1021.5
20260502064034 49 45 3.0 4.0 0.00 0.00 0.00 43 1021.5
20260502063024 49 39 4.0 4.0 0.00 0.00 0.00 43 1021.5
20260502062018 50 36 3.0 4.0 0.00 0.00 0.00 41 1021.6
20260502061033 49 42 3.0 4.0 0.00 0.00 0.00 41 1021.5
20260502055033 50 53 3.0 4.0 0.00 0.00 0.00 42 1021.5
20260502054023 50 55 3.0 4.0 0.00 0.00 0.00 43 1021.4
20260502053033 50 50 3.0 4.0 0.00 0.00 0.00 44 1021.4
20260502052023 50 44 3.0 4.0 0.00 0.00 0.00 45 1021.4
20260502051055 50 61 3.0 4.0 0.00 0.00 0.00 48 1021.4
20260502050030 51 52 2.0 3.0 0.00 0.00 0.00 47 1021.4
20260502045104 51 72 2.0 3.0 0.00 0.00 0.00 47 1021.3
20260502044018 50 54 3.0 4.0 0.00 0.00 0.00 48 1021.4
20260502043033 51 62 3.0 4.0 0.00 0.00 0.00 47 1021.2
20260502042027 51 55 3.0 3.0 0.00 0.00 0.00 47 1021.3
20260502041021 51 57 3.0 3.0 0.00 0.00 0.00 47 1021.3
20260502040035 52 65 3.0 3.0 0.00 0.00 0.00 47 1021.2
20260502035029 52 73 2.0 2.0 0.00 0.00 0.00 47 1021.1
20260502034022 53 67 2.0 3.0 0.00 0.00 0.00 44 1021.0
20260502033056 53 73 3.0 3.0 0.00 0.00 0.00 46 1020.8
20260502032030 54 70 3.0 3.0 0.00 0.00 0.00 45 1020.6
20260502031024 55 77 2.0 3.0 0.00 0.00 0.00 44 1020.6
20260502030018 56 61 3.0 4.0 0.00 0.00 0.00 42 1020.4
20260502025032 57 59 2.0 3.0 0.00 0.00 0.00 41 1020.2
20260502024026 58 45 1.0 2.0 0.00 0.00 0.00 39 1020.2
20260502023100 60 35 2.0 2.0 0.00 0.00 0.00 38 1020.1
20260502022115 61 10 1.0 2.0 0.00 0.00 0.00 35 1020.1
20260502021108 62 3 2.0 3.0 0.00 0.00 0.00 33 1020.0
20260502020021 63 349 2.0 5.0 0.00 0.00 0.00 33 1019.9
20260502015113 64 359 2.0 3.0 0.00 0.00 0.00 32 1019.8
20260502014024 64 327 2.0 5.0 0.00 0.00 0.00 32 1019.7
20260502013016 64 350 3.0 5.0 0.00 0.00 0.00 30 1019.7
20260502012030 65 313 3.0 8.0 0.00 0.00 0.00 31 1019.7
20260502011024 65 349 3.0 5.0 0.00 0.00 0.00 30 1019.7
20260502010019 65 327 3.0 6.0 0.00 0.00 0.00 30 1019.7
20260502005033 65 311 3.0 9.0 0.00 0.00 0.00 30 1019.7
20260502004027 66 11 2.0 5.0 0.00 0.00 0.00 30 1019.7
20260502003021 65 333 3.0 6.0 0.00 0.00 0.00 30 1019.7
20260502002015 65 344 4.0 6.0 0.00 0.00 0.00 29 1019.7
20260502001029 65 331 3.0 7.0 0.00 0.00 0.00 30 1019.8
20260502000023 65 323 3.0 9.0 0.00 0.00 0.00 30 1019.8
20260501235018 65 322 3.0 9.0 0.00 0.00 0.00 30 1019.9
20260501234032 64 335 3.0 6.0 0.00 0.00 0.00 30 1019.9
20260501233106 65 297 4.0 12.0 0.00 0.00 0.00 30 1019.8
20260501232019 65 355 3.0 5.0 0.00 0.00 0.00 29 1019.9
20260501231033 64 354 4.0 10.0 0.00 0.00 0.00 29 1019.9
20260501230028 64 352 4.0 6.0 0.00 0.00 0.00 29 1020.0
20260501225021 64 349 3.0 9.0 0.00 0.00 0.00 29 1020.1
20260501224015 65 321 3.0 7.0 0.00 0.00 0.00 29 1020.2
20260501223109 64 291 4.0 11.0 0.00 0.00 0.00 29 1020.3
20260501222024 64 292 5.0 18.0 0.00 0.00 0.00 29 1020.2
20260501221018 64 314 4.0 10.0 0.00 0.00 0.00 28 1020.4
20260501220032 63 253 8.0 16.0 0.00 0.00 0.00 29 1020.3
20260501215026 64 284 5.0 14.0 0.00 0.00 0.00 28 1020.4
20260501214020 64 281 5.0 13.0 0.00 0.00 0.00 28 1020.5
20260501213034 65 253 4.0 9.0 0.00 0.00 0.00 27 1020.6
20260501212028 63 284 4.0 12.0 0.00 0.00 0.00 28 1020.7
20260501211022 63 317 2.0 5.0 0.00 0.00 0.00 27 1020.7
20260501210016 63 261 5.0 12.0 0.00 0.00 0.00 28 1020.8
20260501205111 63 241 6.0 12.0 0.00 0.00 0.00 27 1020.8
20260501204026 63 269 5.0 10.0 0.00 0.00 0.00 25 1020.9
20260501203019 63 275 6.0 14.0 0.00 0.00 0.00 25 1020.8
20260501202034 62 298 6.0 17.0 0.00 0.00 0.00 25 1020.8
20260501201028 62 237 4.0 8.0 0.00 0.00 0.00 25 1020.7
20260501200022 63 294 3.0 10.0 0.00 0.00 0.00 25 1020.8
20260501195016 63 242 3.0 6.0 0.00 0.00 0.00 25 1020.8
20260501194031 62 282 3.0 7.0 0.00 0.00 0.00 26 1020.8
20260501193106 61 290 6.0 13.0 0.00 0.00 0.00 25 1020.9
20260501192019 61 275 5.0 14.0 0.00 0.00 0.00 26 1021.1
20260501191034 62 270 3.0 12.0 0.00 0.00 0.00 25 1021.1
20260501190029 61 304 4.0 14.0 0.00 0.00 0.00 24 1021.3
20260501185023 62 269 4.0 10.0 0.00 0.00 0.00 24 1021.3
20260501184018 61 237 2.0 8.0 0.00 0.00 0.00 25 1021.4
20260501183032 60 262 4.0 7.0 0.00 0.00 0.00 25 1021.5
20260501182107 60 210 2.0 6.0 0.00 0.00 0.00 25 1021.5
20260501181022 59 192 2.0 7.0 0.00 0.00 0.00 26 1021.7
20260501180056 60 181 4.0 7.0 0.00 0.00 0.00 25 1021.8
20260501175030 59 121 4.0 10.0 0.00 0.00 0.00 26 1021.8
20260501174025 60 113 4.0 11.0 0.00 0.00 0.00 25 1021.9
20260501173019 60 38 4.0 8.0 0.00 0.00 0.00 26 1021.9
20260501172053 60 116 4.0 8.0 0.00 0.00 0.00 25 1021.9
20260501171028 59 36 4.0 10.0 0.00 0.00 0.00 25 1022.1
20260501165017 58 18 5.0 16.0 0.00 0.00 0.00 26 1022.0
20260501164031 58 79 6.0 13.0 0.00 0.00 0.00 26 1021.9
20260501163025 57 90 6.0 10.0 0.00 0.00 0.00 26 1021.9
20260501162019 57 67 4.0 10.0 0.00 0.00 0.00 27 1021.9
20260501161034 57 54 6.0 13.0 0.00 0.00 0.00 28 1021.8
20260501160028 56 94 6.0 11.0 0.00 0.00 0.00 31 1021.8
20260501155122 56 99 5.0 11.0 0.00 0.00 0.00 34 1021.7
20260501154016 55 112 6.0 15.0 0.00 0.00 0.00 35 1021.8
20260501153029 55 90 3.0 7.0 0.00 0.00 0.00 35 1021.7
20260501152023 55 101 8.0 17.0 0.00 0.00 0.00 35 1021.8
20260501151017 55 88 7.0 17.0 0.00 0.00 0.00 35 1021.7
20260501150032 55 32 4.0 9.0 0.00 0.00 0.00 36 1021.7
20260501145026 54 108 5.0 12.0 0.00 0.00 0.00 36 1021.6
20260501144021 53 114 8.0 21.0 0.00 0.00 0.00 37 1021.4
20260501143035 53 115 5.0 11.0 0.00 0.00 0.00 38 1021.4
20260501142029 52 110 6.0 11.0 0.00 0.00 0.00 38 1021.4
20260501141022 52 75 4.0 10.0 0.00 0.00 0.00 39 1021.3
20260501140015 51 82 6.0 15.0 0.00 0.00 0.00 39 1021.1
20260501135029 50 71 8.0 17.0 0.00 0.00 0.00 40 1021.0